Regional Weather Roundup
Issued by NWS

Home | Current Version | Previous Version | Graphics & Text | Print | Product List | Glossary On
Versions: 1 2 3 4 5 6 7 8 9 10 11 12 13 14 15 16 17 18 19 20 21 22 23 24 25 26 27
000
ASUS45 KPSR 282310
RWRAZ

ARIZONA HOURLY REGIONAL WEATHER ROUNDUP
NATIONAL WEATHER SERVICE PHOENIX AZ
400 PM MST FRI APR 28 2017

NOTE: FAIR INDICATES FEW OR NO CLOUDS BELOW 12,000 FEET WITH NO
SIGNIFICANT WEATHER AND/OR OBSTRUCTIONS TO VISIBILITY.

AZZ001>003-036-290000-
NORTHWEST ARIZONA

CITY           SKY/WX    TMP DP  RH WIND       PRES   REMARKS
BULLHEAD CITY  SUNNY     77   7   6 N26G38    29.73R
KINGMAN        SUNNY     65   6  10 N25G43    29.81F
$$

AZZ004>008-015-016-018-290000-
NORTH CENTRAL ARIZONA

CITY           SKY/WX    TMP DP  RH WIND       PRES   REMARKS
GRAND CANYON   MOSUNNY   46  11  24 N20G28    29.81R
WILLIAMS       PTSUNNY   46   7  19 N16G32    29.80R
PRESCOTT       SUNNY     60  -3   8 NW29G38   29.73R
FLAGSTAFF      CLOUDY    46   4  17 N10G20    29.75R
PAYSON         MOSUNNY   64   5   9 W18G41    29.69S
PAGE           MOSUNNY   57  10  15 W15G24    29.77R
$$

AZZ009>014-017-290000-
NORTHEAST ARIZONA

CITY           SKY/WX    TMP DP  RH WIND       PRES   REMARKS
WINSLOW        PTSUNNY   57   7  13 NW21G28   29.70F
SAINT JOHNS    LGT RAIN  41  39  93 N14G23    29.71R FOG
WINDOW ROCK    CLOUDY    43  23  45 N17G23    29.76F
SHOW LOW       PTSUNNY   55  21  26 W20G31    29.68F
$$

AZZ540-542>544-546-548-290000-
GREATER PHOENIX AREA

CITY           SKY/WX    TMP DP  RH WIND       PRES   REMARKS
PHOENIX        MOSUNNY   86  18   8 NW28G37   29.55F
BUCKEYE        SUNNY     82  10   6 W22G33    29.61R
GLENDALE       MOSUNNY   84  10   6 W25       29.58F
LUKE AFB       SUNNY     84  14   7 NW21G30   29.57S
DEER VALLEY    SUNNY     84   9   6 W28G33    29.57F
SCOTTSDALE     LGT RAIN  82  13   7 W17G30    29.58F
MESA-FALCON    MOSUNNY  N/A N/A N/A W17G29    29.57F
MESA-GATEWAY   SUNNY     82  19   9 W21G28    29.58F
CHANDLER       SUNNY     84  27  12 W17G35    29.57F
$$

AZZ539-553-290000-
SOUTHWEST MARICOPA COUNTY AND PINAL COUNTY

CITY           SKY/WX    TMP DP  RH WIND       PRES   REMARKS
CASA GRANDE    SUNNY     82  21  10 W21G26    29.60F
GILA BEND      MOSUNNY   85  18   8 W18G28    29.60F
$$

AZZ503-504-507>509-290000-
SOUTHEAST ARIZONA

CITY           SKY/WX    TMP DP  RH WIND       PRES   REMARKS
TUCSON         PTSUNNY   81  46  29 W20G33    29.65F
DAVIS-MONTHAN  MOSUNNY   78  47  32 W16G26    29.64F
RYAN FIELD     SUNNY     81  45  28 W26G33    29.65F
NOGALES        CLOUDY    76  40  27 SW21G28   29.72S
SIERRA VISTA   PTSUNNY   73  40  30 SW29G39   29.71F
DOUGLAS        PTSUNNY   76  40  27 W18G31    29.69S
SAFFORD        MOSUNNY   77  45  32 NW28G40   29.56F
$$

AZZ532-290000-
SOUTHWEST ARIZONA

CITY           SKY/WX    TMP DP  RH WIND       PRES   REMARKS
YUMA           MOSUNNY   86  18   8 N10G17    29.63F
$$

CAZ041-043-047-048-061-525>527-560>570-290000-
SOUTHERN CALIFORNIA

CITY           SKY/WX    TMP DP  RH WIND       PRES   REMARKS
DOWNTOWN L.A.  MOSUNNY   84  21  10 NW12G23   29.71F
L.A. AIRPORT   MOSUNNY   68  50  52 W25       29.75F
SAN DIEGO      PTSUNNY   72  57  59 W13       29.77F
BURBANK        SUNNY     80  12   7 NW21G30   29.74F
ONTARIO        PTSUNNY   80  37  21 SW9       29.71F
RIVERSIDE      SUNNY     81  35  19 CALM      29.71F
PALM SPRINGS   SUNNY     90  20   7 N8        29.67F
EL CENTRO NAS  MOSUNNY   88  17   7 NE12      29.65F
IMPERIAL       SUNNY     87  28  12 N7        29.63F
BLYTHE         MOSUNNY   86  15   7 NW22G30   29.65F
NEEDLES        SUNNY     81   6   5 NE22G37   29.72F
$$

NVZ020-UTZ003-290000-
SOUTHERN NEVADA-UTAH

CITY           SKY/WX    TMP DP  RH WIND       PRES   REMARKS
LAS VEGAS      MOSUNNY   70   4   7 N25G36    29.82F
SALT LAKE CITY CLOUDY    41  36  82 NE7       29.94S
$$

NMZ009-TXZ055-290000-
NEW MEXICO-WEST TEXAS

CITY           SKY/WX    TMP DP  RH WIND       PRES   REMARKS
ALBUQUERQUE    LGT RAIN  42  37  82 S5        29.75F
EL PASO        CLOUDY    83  30  14 W30G39    29.56F
$$


........................KEY........................
SKY/WX - SKY CONDITION/WEATHER
TMP    - TEMPERATURE IN FAHRENHEIT
DP     - DEW POINT IN FAHRENHEIT
RH     - RELATIVE HUMIDITY IN PERCENT
WIND   - DIRECTION AND SPEED IN MILES PER HOUR (MPH)
VRB    - VARIABLE WIND DIRECTION
PRES   - MEAN SEA LEVEL PRESSURE IN INCHES OF MERCURY
         F - FALLING PRESSURE   R - RISING PRESSURE
         S - STEADY PRESSURE
VSB    - VISIBILITY IN MILES
HX     - HEAT INDEX IN FAHRENHEIT
WCI    - WIND CHILL INDEX IN FAHRENHEIT
TC     - TEMPERATURE IN CELSIUS WHICH IS ALSO KNOWN AS
         TEMPERATURE IN CENTIGRADE
AFB    - AIR FORCE BASE
         LUKE AFB IS LUKE AIR FORCE BASE
         DAVIS-MONTHAN IS DAVIS-MONTHAN AIR FORCE BASE
NAS    - NAVAL AIR STATION
         EL CENTRO NAS IS EL CENTRO NAVAL AIR STATION
N/A    - NOT AVAILABLE





USA.gov is the U.S. government's official web portal to all federal, state and local government web resources and services.